When you browse on this site, cookies collect data to enhance your experience and personalize the content and advertising you see.
Visit our Privacy Policy to learn more. By continuing to use the site, you agree to this use of cookies and data.
  • In Austria
  • List of Countries
  • For 7 days
  • Water Temperature
  • Satellite Maps
  • Weather Map
  • News
  • Weather Widgets
  • user-avatar
    Login

    Hourly Weather Orange Walk

    Today, 25 June, Tuesday

    Time Temperature Precipitation Wind Pressure Humidity
    00:00 +26°C° 0 mm 1 mps 758 mmHg 94%
    01:00 +26°C° 0 mm 1 mps 758 mmHg 95%
    02:00 +26°C° 0 mm 1 mps 757 mmHg 95%
    03:00 +26°C° 0 mm 1 mps 757 mmHg 96%
    04:00 +26°C° 0 mm 1 mps 757 mmHg 95%
    05:00 +26°C° 0 mm 1 mps 758 mmHg 94%
    06:00 +27°C° 0 mm 1 mps 758 mmHg 92%
    07:00 +29°C° 0 mm 2 mps 758 mmHg 82%
    08:00 +31°C° 0 mm 3 mps 759 mmHg 71%
    09:00 +34°C° 0 mm 4 mps 759 mmHg 61%
    10:00 +35°C° 0 mm 4 mps 759 mmHg 55%
    11:00 +36°C° 0 mm 4 mps 759 mmHg 50%
    12:00 +37°C° 0 mm 5 mps 759 mmHg 44%
    13:00 +36°C° 0 mm 5 mps 758 mmHg 46%
    14:00 +36°C° 0 mm 5 mps 757 mmHg 48%
    15:00 +36°C° 0 mm 4 mps 757 mmHg 50%
    16:00 +34°C° 0 mm 4 mps 757 mmHg 57%
    17:00 +33°C° 0 mm 3 mps 757 mmHg 63%
    18:00 +30°C° 0 mm 3 mps 757 mmHg 70%
    19:00 +29°C° 0 mm 2 mps 758 mmHg 77%
    20:00 +28°C° 0 mm 2 mps 758 mmHg 84%
    21:00 +27°C° 0 mm 1 mps 759 mmHg 90%
    22:00 +26°C° 0 mm 1 mps 759 mmHg 92%
    23:00 +26°C° 0 mm 1 mps 759 mmHg 94%

    Tomorrow, 26 June, Wednesday

    Time Temperature Precipitation Wind Pressure Humidity
    00:00 +26°C° 0 mm 1 mps 759 mmHg 95%
    01:00 +26°C° 0 mm 1 mps 759 mmHg 95%
    02:00 +26°C° 0 mm 1 mps 758 mmHg 95%
    03:00 +26°C° 0 mm 1 mps 758 mmHg 96%
    04:00 +26°C° 0 mm 1 mps 758 mmHg 95%
    05:00 +26°C° 0 mm 1 mps 758 mmHg 94%
    06:00 +26°C° 0 mm 1 mps 758 mmHg 93%
    07:00 +28°C° 0 mm 2 mps 759 mmHg 82%
    08:00 +30°C° 0 mm 3 mps 759 mmHg 71%
    09:00 +34°C° 0 mm 3 mps 759 mmHg 60%
    10:00 +34°C° 0 mm 4 mps 759 mmHg 57%
    11:00 +35°C° 0 mm 4 mps 759 mmHg 53%
    12:00 +36°C° 0 mm 4 mps 759 mmHg 50%
    13:00 +36°C° 0 mm 4 mps 758 mmHg 50%
    14:00 +36°C° 0 mm 5 mps 758 mmHg 50%
    15:00 +36°C° 0 mm 5 mps 757 mmHg 50%
    16:00 +34°C° 0 mm 4 mps 757 mmHg 55%
    17:00 +33°C° 0 mm 4 mps 757 mmHg 61%
    18:00 +30°C° 0 mm 3 mps 757 mmHg 66%
    19:00 +29°C° 0 mm 2 mps 758 mmHg 73%
    20:00 +28°C° 0 mm 2 mps 758 mmHg 81%
    21:00 +27°C° 0 mm 2 mps 759 mmHg 89%
    22:00 +27°C° 0 mm 1 mps 759 mmHg 90%
    23:00 +26°C° 0 mm 1 mps 759 mmHg 92%

    Day after tomorrow, 27 June, Thursday

    Time Temperature Precipitation Wind Pressure Humidity
    00:00 +26°C° 0 mm 1 mps 759 mmHg 94%
    01:00 +26°C° 0 mm 1 mps 759 mmHg 94%
    02:00 +26°C° 0 mm 1 mps 758 mmHg 94%
    03:00 +26°C° 0 mm 1 mps 758 mmHg 94%
    04:00 +26°C° 0 mm 1 mps 758 mmHg 93%
    05:00 +26°C° 0 mm 1 mps 758 mmHg 92%
    06:00 +26°C° 0 mm 1 mps 758 mmHg 91%
    07:00 +28°C° 0 mm 1 mps 759 mmHg 81%
    08:00 +30°C° 0 mm 2 mps 759 mmHg 71%
    09:00 +33°C° 0 mm 3 mps 759 mmHg 61%
    10:00 +34°C° 0.1 mm 3 mps 759 mmHg 57%
    11:00 +35°C° 0.1 mm 3 mps 759 mmHg 53%
    12:00 +36°C° 0.1 mm 4 mps 758 mmHg 49%
    13:00 +36°C° 0.2 mm 4 mps 758 mmHg 49%
    14:00 +36°C° 0.2 mm 4 mps 758 mmHg 49%
    15:00 +35°C° 0.2 mm 4 mps 757 mmHg 49%
    16:00 +34°C° 0 mm 4 mps 757 mmHg 53%
    17:00 +33°C° 0 mm 3 mps 757 mmHg 58%
    18:00 +30°C° 0 mm 3 mps 757 mmHg 63%
    19:00 +29°C° 0 mm 2 mps 758 mmHg 70%
    20:00 +28°C° 0 mm 2 mps 758 mmHg 78%
    21:00 +27°C° 0 mm 1 mps 759 mmHg 86%
    22:00 +26°C° 0 mm 1 mps 759 mmHg 89%
    23:00 +26°C° 0 mm 1 mps 759 mmHg 92%

    28 June, Friday

    Time Temperature Precipitation Wind Pressure Humidity
    00:00 +26°C° 0 mm 1 mps 759 mmHg 95%
    01:00 +26°C° 0 mm 1 mps 758 mmHg 96%
    02:00 +23°C° 0 mm 0 mps 758 mmHg 96%
    03:00 +23°C° 0 mm 0 mps 758 mmHg 97%
    04:00 +24°C° 0 mm 0 mps 758 mmHg 95%
    05:00 +26°C° 0 mm 1 mps 758 mmHg 93%
    06:00 +27°C° 0 mm 1 mps 758 mmHg 91%
    07:00 +29°C° 0 mm 1 mps 759 mmHg 81%
    08:00 +30°C° 0 mm 1 mps 759 mmHg 71%
    09:00 +32°C° 0 mm 2 mps 760 mmHg 61%
    10:00 +35°C° 0 mm 2 mps 759 mmHg 55%
    11:00 +36°C° 0 mm 3 mps 759 mmHg 48%
    12:00 +37°C° 0 mm 3 mps 759 mmHg 42%
    13:00 +37°C° 0 mm 4 mps 758 mmHg 42%
    14:00 +37°C° 0 mm 4 mps 757 mmHg 42%
    15:00 +36°C° 0 mm 4 mps 757 mmHg 42%
    16:00 +35°C° 0 mm 4 mps 757 mmHg 50%
    17:00 +33°C° 0 mm 3 mps 757 mmHg 57%
    18:00 +31°C° 0 mm 3 mps 757 mmHg 65%
    19:00 +29°C° 0 mm 2 mps 758 mmHg 74%
    20:00 +28°C° 0 mm 2 mps 758 mmHg 82%
    21:00 +27°C° 0 mm 1 mps 759 mmHg 91%
    22:00 +26°C° 0.2 mm 1 mps 759 mmHg 92%
    23:00 +26°C° 0.2 mm 1 mps 759 mmHg 94%

    29 June, Saturday

    Time Temperature Precipitation Wind Pressure Humidity
    00:00 +25°C° 0.2 mm 1 mps 759 mmHg 96%
    01:00 +25°C° 0.4 mm 1 mps 758 mmHg 96%
    02:00 +25°C° 0.4 mm 1 mps 758 mmHg 97%
    03:00 +25°C° 0.4 mm 1 mps 758 mmHg 97%
    04:00 +25°C° 0 mm 1 mps 758 mmHg 97%
    05:00 +25°C° 0 mm 1 mps 758 mmHg 97%
    06:00 +25°C° 0 mm 1 mps 758 mmHg 96%
    07:00 +27°C° 0 mm 1 mps 759 mmHg 86%
    08:00 +29°C° 0 mm 1 mps 759 mmHg 75%
    09:00 +32°C° 0 mm 1 mps 760 mmHg 64%
    10:00 +34°C° 0.1 mm 2 mps 759 mmHg 58%
    11:00 +35°C° 0.1 mm 3 mps 759 mmHg 52%
    12:00 +36°C° 0.1 mm 3 mps 759 mmHg 46%
    13:00 +36°C° 0 mm 3 mps 758 mmHg 45%
    14:00 +36°C° 0 mm 3 mps 758 mmHg 44%
    15:00 +36°C° 0 mm 4 mps 757 mmHg 44%
    16:00 +34°C° 0 mm 3 mps 757 mmHg 50%
    17:00 +31°C° 0 mm 3 mps 757 mmHg 57%
    18:00 +30°C° 0 mm 3 mps 757 mmHg 64%
    19:00 +29°C° 0 mm 2 mps 758 mmHg 71%
    20:00 +27°C° 0 mm 2 mps 759 mmHg 79%
    21:00 +26°C° 0 mm 1 mps 759 mmHg 87%
    22:00 +26°C° 0 mm 1 mps 759 mmHg 88%
    23:00 +26°C° 0 mm 1 mps 759 mmHg 89%

    30 June, Sunday

    Time Temperature Precipitation Wind Pressure Humidity
    00:00 +26°C° 0 mm 1 mps 759 mmHg 90%
    01:00 +25°C° 0.3 mm 1 mps 758 mmHg 92%
    02:00 +25°C° 0.3 mm 1 mps 758 mmHg 93%
    03:00 +25°C° 0.3 mm 1 mps 758 mmHg 94%
    04:00 +25°C° 1.5 mm 1 mps 758 mmHg 95%
    05:00 +25°C° 1.5 mm 1 mps 758 mmHg 95%
    06:00 +26°C° 1.5 mm 1 mps 758 mmHg 95%
    07:00 +26°C° 2.3 mm 1 mps 758 mmHg 95%
    08:00 +26°C° 2.3 mm 1 mps 759 mmHg 96%
    09:00 +26°C° 2.3 mm 2 mps 759 mmHg 96%
    10:00 +26°C° 1 mm 2 mps 759 mmHg 95%
    11:00 +26°C° 1 mm 2 mps 759 mmHg 94%
    12:00 +27°C° 1 mm 2 mps 759 mmHg 93%
    13:00 +26°C° 1.3 mm 2 mps 758 mmHg 94%
    14:00 +26°C° 1.3 mm 2 mps 758 mmHg 95%
    15:00 +26°C° 1.3 mm 2 mps 757 mmHg 96%
    16:00 +26°C° 0.2 mm 2 mps 757 mmHg 96%
    17:00 +26°C° 0.2 mm 2 mps 757 mmHg 96%
    18:00 +26°C° 0.2 mm 1 mps 757 mmHg 96%
    19:00 +26°C° 0.5 mm 1 mps 758 mmHg 96%
    20:00 +26°C° 0.5 mm 1 mps 758 mmHg 97%
    21:00 +26°C° 0.5 mm 1 mps 758 mmHg 97%
    22:00 +26°C° 2.6 mm 2 mps 758 mmHg 96%
    23:00 +26°C° 2.6 mm 2 mps 758 mmHg 96%
    Show more